GW5972 Weather Reports


time (UTC)temp
C
wind
direction
speed
KPH
gust
KPH
rain 1hr
cm
rain 24hr
cm
rain mn
cm
humidity
%
barometer
mb
20260507222337 9 152 0.0 0.0 0.00 0.00 0.08 84 1008.0
20260507221836 9 152 0.0 0.0 0.00 0.00 0.08 84 1008.0
20260507221336 9 152 0.0 0.0 0.00 0.00 0.08 85 1008.0
20260507220836 9 152 0.0 0.0 0.00 0.00 0.08 85 1008.0
20260507220337 9 152 0.0 0.0 0.00 0.00 0.08 85 1008.0
20260507215836 9 152 0.0 0.0 0.00 0.00 0.08 85 1008.0
20260507215336 9 152 0.0 0.0 0.00 0.00 0.08 84 1008.0
20260507214837 9 152 0.0 0.0 0.00 0.00 0.08 84 1008.0
20260507214337 9 152 0.0 0.0 0.00 0.00 0.08 83 1008.0
20260507213838 9 152 0.0 0.0 0.00 0.00 0.08 83 1008.0
20260507213336 9 152 0.0 0.0 0.00 0.00 0.08 83 1008.0
20260507212837 9 152 0.0 0.0 0.00 0.00 0.08 83 1008.0
20260507212338 9 152 0.0 0.0 0.00 0.00 0.08 84 1008.0
20260507211837 9 152 0.0 0.0 0.00 0.00 0.08 86 1008.0
20260507211337 9 152 0.0 0.0 0.00 0.00 0.08 87 1008.0
20260507210836 9 152 0.0 0.0 0.00 0.00 0.08 88 1008.0
20260507210337 9 152 0.0 0.0 0.00 0.00 0.08 89 1008.0
20260507205845 10 152 0.0 0.0 0.00 0.00 0.08 90 1008.0
20260507205337 10 152 0.0 0.0 0.00 0.00 0.08 90 1008.0
20260507204837 10 152 0.0 0.0 0.00 0.00 0.08 90 1008.0
20260507204337 10 152 0.0 0.0 0.00 0.00 0.08 90 1008.0
20260507203837 10 152 0.0 0.0 0.00 0.00 0.08 90 1008.0
20260507203337 10 152 0.0 0.0 0.00 0.00 0.08 90 1008.0
20260507202836 10 152 0.0 0.0 0.00 0.00 0.08 89 1008.0
20260507202336 10 152 0.0 0.0 0.00 0.00 0.08 89 1008.0
20260507201836 10 152 0.0 0.0 0.00 0.00 0.08 89 1008.0
20260507201336 10 152 0.0 0.0 0.00 0.00 0.08 88 1008.0
20260507200837 10 152 0.0 0.0 0.00 0.00 0.08 88 1008.0
20260507200336 10 152 0.0 0.0 0.00 0.00 0.08 88 1008.0
20260507195837 10 152 0.0 0.0 0.00 0.00 0.08 88 1007.0
20260507195337 10 152 0.0 0.0 0.00 0.00 0.08 88 1007.0
20260507194836 10 152 0.0 0.0 0.00 0.00 0.08 87 1007.0
20260507194336 10 152 0.0 0.0 0.00 0.00 0.08 87 1007.0
20260507193837 10 152 0.0 0.0 0.00 0.00 0.08 87 1007.0
20260507193338 10 152 0.0 0.0 0.00 0.00 0.08 86 1007.0
20260507192836 10 152 0.0 0.0 0.00 0.00 0.08 86 1007.0
20260507192337 11 152 0.0 0.0 0.00 0.00 0.08 86 1007.0
20260507191837 11 152 0.0 0.0 0.00 0.00 0.08 86 1007.0
20260507191336 11 152 0.0 0.0 0.00 0.00 0.08 86 1007.0
20260507190837 11 152 0.0 0.0 0.00 0.00 0.08 85 1007.0
20260507190337 11 152 0.0 0.0 0.00 0.00 0.08 85 1007.0
20260507185837 11 152 0.0 0.0 0.00 0.00 0.08 85 1007.0
20260507185336 11 152 0.0 0.0 0.00 0.00 0.08 85 1007.0
20260507184838 11 152 0.0 0.0 0.00 0.00 0.08 86 1007.0
20260507184336 11 152 0.0 0.0 0.00 0.00 0.08 86 1007.0
20260507183836 11 152 0.0 0.0 0.00 0.00 0.08 86 1007.0
20260507183337 11 152 0.0 0.0 0.00 0.00 0.08 86 1007.0
20260507182836 11 152 0.0 0.0 0.00 0.00 0.08 86 1007.0
20260507182337 11 152 0.0 0.0 0.00 0.00 0.08 86 1007.0
20260507181837 11 152 0.0 0.0 0.00 0.00 0.08 86 1007.0
20260507181336 11 152 0.0 0.0 0.00 0.00 0.08 86 1007.0
20260507180836 11 152 0.0 0.0 0.00 0.00 0.08 86 1007.0
20260507180337 11 152 0.0 0.0 0.00 0.00 0.08 86 1007.0
20260507175838 11 152 0.0 0.0 0.00 0.00 0.08 86 1007.0
20260507175337 11 152 0.0 0.0 0.00 0.00 0.08 85 1007.0
20260507174838 10 152 0.0 0.0 0.00 0.00 0.08 85 1007.0
20260507174336 10 152 0.0 1.6 0.00 0.00 0.08 85 1007.0
20260507173837 10 153 0.0 0.0 0.00 0.00 0.08 86 1007.0
20260507173336 10 153 0.0 0.0 0.00 0.00 0.08 86 1007.0
20260507172836 10 156 0.0 1.6 0.05 0.00 0.08 85 1007.0
20260507172336 10 108 0.0 0.0 0.13 0.00 0.08 85 1007.0
20260507171837 10 82 0.0 1.6 0.13 0.00 0.05 84 1007.0
20260507171336 11 96 1.6 1.6 0.13 0.00 0.05 84 1007.0
20260507170837 11 102 0.0 0.0 0.13 0.00 0.05 83 1007.0
20260507170339 11 106 0.0 1.6 0.05 0.00 0.03 81 1007.0
20260507165837 11 79 3.2 3.2 0.05 0.00 0.03 78 1007.0
20260507165337 12 138 3.2 4.8 0.05 0.00 0.00 73 1007.0
20260507164837 13 140 0.0 8.0 0.05 0.00 0.00 70 1007.0
20260507164336 13 124 0.0 3.2 0.00 0.00 0.00 62 1007.0
20260507163837 13 167 3.2 3.2 0.00 0.00 0.00 58 1007.0
20260507163337 13 213 4.8 8.0 0.00 0.00 0.00 57 1007.0
20260507162838 14 211 1.6 1.6 0.00 0.00 0.00 57 1007.0
20260507162337 14 145 1.6 3.2 0.00 0.00 0.00 56 1007.0
20260507161837 14 157 1.6 1.6 0.00 0.00 0.00 56 1007.0
20260507161337 14 211 0.0 1.6 0.00 0.00 0.00 56 1007.0
20260507160837 15 135 3.2 4.8 0.00 0.00 0.00 55 1007.0
20260507160337 15 189 0.0 4.8 0.00 0.00 0.00 55 1007.0
20260507155837 15 201 0.0 1.6 0.00 0.00 0.00 55 1007.0
20260507155337 15 227 3.2 8.0 0.00 0.00 0.00 55 1007.0
20260507154837 14 187 1.6 3.2 0.00 0.00 0.00 56 1007.0
20260507154337 14 185 1.6 1.6 0.00 0.00 0.00 55 1007.0
20260507153837 14 193 1.6 4.8 0.00 0.00 0.00 56 1007.0
20260507153337 14 222 1.6 3.2 0.00 0.00 0.00 56 1007.0
20260507152836 13 166 0.0 3.2 0.00 0.00 0.00 57 1007.0
20260507152336 13 210 0.0 1.6 0.00 0.00 0.00 56 1007.0
20260507151837 13 163 1.6 1.6 0.00 0.00 0.00 56 1007.0
20260507151337 13 204 0.0 0.0 0.00 0.00 0.00 57 1007.0
20260507150837 13 162 4.8 8.0 0.00 0.00 0.00 55 1007.0
20260507150337 13 221 3.2 4.8 0.00 0.00 0.00 56 1007.0
20260507145836 13 156 3.2 4.8 0.00 0.00 0.00 56 1007.0
20260507145336 13 221 3.2 9.7 0.00 0.00 0.00 56 1007.0
20260507144837 14 119 1.6 3.2 0.00 0.00 0.00 56 1007.0
20260507144336 14 191 3.2 3.2 0.00 0.00 0.00 57 1007.0
20260507143837 14 190 0.0 3.2 0.00 0.00 0.00 55 1007.0
20260507143337 14 188 0.0 0.0 0.00 0.00 0.00 57 1007.0
20260507142837 14 220 1.6 4.8 0.00 0.00 0.00 56 1007.0
20260507142336 14 105 3.2 4.8 0.00 0.00 0.00 57 1007.0
20260507141837 14 206 1.6 3.2 0.00 0.00 0.00 58 1007.0
20260507141337 13 151 1.6 3.2 0.00 0.00 0.00 59 1007.0
20260507140837 13 218 0.0 1.6 0.00 0.00 0.00 59 1007.0
20260507140337 14 87 3.2 4.8 0.00 0.00 0.00 57 1008.0
20260507135837 14 223 0.0 4.8 0.00 0.00 0.00 58 1008.0
20260507135337 15 164 0.0 3.2 0.00 0.00 0.00 57 1008.0
20260507134837 15 154 0.0 1.6 0.00 0.00 0.00 56 1008.0
20260507134337 15 216 4.8 4.8 0.00 0.00 0.00 56 1007.0
20260507133836 15 206 1.6 8.0 0.00 0.00 0.00 56 1007.0
20260507133339 15 211 1.6 8.0 0.00 0.00 0.00 56 1008.0
20260507132836 15 131 0.0 3.2 0.00 0.00 0.00 57 1008.0
20260507132336 14 139 1.6 1.6 0.00 0.00 0.00 59 1008.0
20260507131837 14 146 1.6 3.2 0.00 0.00 0.00 58 1008.0
20260507131337 14 183 0.0 1.6 0.00 0.00 0.00 60 1008.0
20260507130838 14 202 0.0 1.6 0.00 0.00 0.00 61 1008.0
20260507130336 14 232 0.0 3.2 0.00 0.00 0.00 60 1008.0
20260507125837 14 241 1.6 3.2 0.00 0.00 0.00 59 1008.0
20260507125337 13 175 0.0 0.0 0.00 0.00 0.00 61 1008.0
20260507124836 13 205 1.6 4.8 0.00 0.00 0.00 59 1008.0
20260507124337 13 105 3.2 3.2 0.00 0.00 0.00 60 1008.0
20260507123837 13 169 0.0 3.2 0.00 0.00 0.00 61 1008.0
20260507123336 13 89 0.0 0.0 0.00 0.00 0.00 62 1008.0
20260507122837 13 152 0.0 1.6 0.00 0.00 0.00 61 1008.0
20260507122337 13 110 0.0 1.6 0.00 0.00 0.00 62 1008.0
20260507121837 13 196 3.2 9.7 0.00 0.00 0.00 61 1008.0
20260507121337 13 240 3.2 4.8 0.00 0.00 0.00 63 1008.0
20260507120837 13 130 1.6 3.2 0.00 0.00 0.00 62 1008.0
20260507120343 13 184 0.0 4.8 0.00 0.00 0.00 62 1008.0
20260507115837 13 168 1.6 1.6 0.00 0.00 0.00 63 1008.0
20260507115336 13 183 0.0 1.6 0.00 0.00 0.00 64 1008.0
20260507114837 12 175 0.0 3.2 0.00 0.00 0.00 64 1008.0
20260507114336 12 192 0.0 3.2 0.00 0.00 0.00 65 1008.0
20260507113837 12 138 0.0 1.6 0.00 0.00 0.00 66 1008.0
20260507113338 12 157 1.6 4.8 0.00 0.00 0.00 67 1008.0
20260507112837 11 125 0.0 1.6 0.00 0.00 0.00 68 1008.0
20260507112339 11 128 0.0 1.6 0.00 0.00 0.00 68 1008.0
20260507111838 11 220 0.0 3.2 0.00 0.00 0.00 69 1008.0
20260507111338 11 149 0.0 1.6 0.00 0.00 0.00 71 1008.0
20260507110836 11 157 0.0 1.6 0.00 0.00 0.00 71 1008.0
20260507110336 10 204 0.0 0.0 0.00 0.00 0.00 73 1008.0
20260507105837 10 204 1.6 1.6 0.00 0.00 0.00 74 1008.0
20260507105337 10 172 1.6 3.2 0.00 0.00 0.00 74 1008.0
20260507104836 10 153 0.0 1.6 0.00 0.00 0.00 76 1008.0
20260507104336 10 160 0.0 0.0 0.00 0.00 0.00 76 1008.0
20260507103837 10 217 1.6 1.6 0.00 0.00 0.00 76 1009.0
20260507103337 9 122 0.0 1.6 0.00 0.00 0.00 77 1009.0
20260507102836 9 175 0.0 0.0 0.00 0.00 0.00 77 1009.0
20260507102337 9 208 0.0 1.6 0.00 0.00 0.00 77 1008.0
20260507101837 9 206 0.0 1.6 0.00 0.00 0.00 77 1008.0
20260507101336 9 211 0.0 3.2 0.00 0.00 0.00 77 1008.0
20260507100836 9 208 3.2 3.2 0.00 0.00 0.00 77 1008.0
20260507100337 9 198 1.6 3.2 0.00 0.00 0.00 77 1008.0
20260507095838 9 203 4.8 8.0 0.00 0.00 0.00 76 1008.0
20260507095336 9 150 0.0 1.6 0.00 0.00 0.00 77 1008.0
20260507094838 9 219 0.0 1.6 0.00 0.00 0.00 78 1008.0
20260507094337 9 180 1.6 3.2 0.00 0.00 0.00 79 1008.0
20260507093837 8 173 0.0 1.6 0.00 0.00 0.00 79 1008.0
20260507093336 8 208 0.0 1.6 0.00 0.00 0.00 79 1008.0
20260507092838 8 161 0.0 1.6 0.00 0.00 0.00 79 1008.0
20260507092337 8 184 1.6 3.2 0.00 0.00 0.00 79 1008.0
20260507091836 8 233 0.0 0.0 0.00 0.00 0.00 80 1008.0
20260507091337 8 227 1.6 1.6 0.00 0.00 0.00 80 1008.0
20260507090836 8 179 0.0 3.2 0.00 0.00 0.00 80 1008.0
20260507090337 8 217 1.6 3.2 0.00 0.00 0.00 80 1008.0
20260507085837 8 190 0.0 1.6 0.00 0.00 0.00 80 1008.0
20260507085336 8 210 0.0 0.0 0.00 0.00 0.00 81 1008.0
20260507084837 8 211 0.0 1.6 0.00 0.00 0.00 80 1008.0
20260507084336 8 182 1.6 3.2 0.00 0.00 0.00 80 1008.0
20260507083837 8 176 0.0 4.8 0.00 0.00 0.00 81 1008.0
20260507083336 8 207 0.0 1.6 0.00 0.00 0.00 81 1008.0
20260507082837 8 183 0.0 1.6 0.00 0.00 0.00 81 1008.0
20260507082337 8 205 1.6 8.0 0.00 0.00 0.00 81 1008.0
20260507081837 8 204 1.6 3.2 0.00 0.00 0.00 80 1008.0
20260507081337 8 236 0.0 0.0 0.00 0.00 0.00 81 1008.0
20260507080837 8 216 1.6 3.2 0.00 0.00 0.00 81 1008.0
20260507080336 8 215 1.6 1.6 0.00 0.00 0.00 81 1008.0
20260507075837 7 189 0.0 1.6 0.00 0.00 0.00 81 1008.0
20260507075336 7 158 1.6 4.8 0.00 0.00 0.00 81 1008.0
20260507074837 7 149 0.0 1.6 0.00 0.00 0.00 81 1008.0
20260507074337 7 196 0.0 8.0 0.00 0.00 0.00 81 1008.0
20260507073836 7 215 4.8 8.0 0.00 0.00 0.00 81 1008.0
20260507073337 7 167 1.6 1.6 0.00 0.00 0.00 81 1008.0
20260507072837 7 171 0.0 1.6 0.00 0.00 0.00 82 1008.0
20260507072339 7 203 0.0 1.6 0.00 0.00 0.00 82 1008.0
20260507071837 7 191 1.6 3.2 0.00 0.00 0.00 81 1008.0
20260507071336 7 241 0.0 0.0 0.00 0.00 0.00 82 1008.0
20260507070837 7 94 1.6 4.8 0.00 0.00 0.00 82 1008.0
20260507070338 7 224 4.8 8.0 0.00 0.00 0.00 82 1008.0
20260507065837 7 208 3.2 4.8 0.00 0.00 0.00 81 1008.0
20260507065337 7 191 3.2 8.0 0.00 0.00 0.00 81 1008.0
20260507064836 7 188 1.6 1.6 0.00 0.00 0.00 81 1008.0
20260507064337 7 359 1.6 3.2 0.00 0.00 0.00 81 1008.0
20260507063836 7 199 1.6 3.2 0.00 0.00 0.00 81 1008.0
20260507063337 7 149 1.6 1.6 0.00 0.00 0.00 81 1008.0
20260507062836 7 211 0.0 0.0 0.00 0.00 0.00 82 1008.0
20260507062337 7 220 3.2 3.2 0.00 0.00 0.00 82 1008.0
20260507061836 7 236 0.0 3.2 0.00 0.00 0.00 82 1008.0
20260507061337 7 209 1.6 1.6 0.00 0.00 0.00 82 1008.0
20260507060836 7 206 0.0 1.6 0.00 0.00 0.00 82 1008.0
20260507060336 7 209 1.6 3.2 0.00 0.00 0.00 82 1008.0
20260507055837 7 203 1.6 4.8 0.00 0.00 0.00 82 1008.0
20260507055336 7 108 0.0 1.6 0.00 0.00 0.00 83 1008.0
20260507054836 7 211 0.0 1.6 0.00 0.00 0.00 83 1008.0
20260507054337 7 171 0.0 1.6 0.00 0.00 0.00 83 1008.0
20260507053837 7 217 1.6 3.2 0.00 0.00 0.00 83 1008.0
20260507053337 7 216 3.2 3.2 0.00 0.00 0.00 83 1008.0
20260507052836 7 183 1.6 4.8 0.00 0.00 0.00 83 1008.0
20260507052337 7 156 1.6 1.6 0.00 0.00 0.00 83 1008.0
20260507051836 7 145 0.0 4.8 0.00 0.00 0.00 82 1008.0
20260507051337 7 201 1.6 1.6 0.00 0.00 0.00 83 1008.0
20260507050837 7 211 3.2 3.2 0.00 0.00 0.00 83 1008.0
20260507050336 7 185 1.6 1.6 0.00 0.00 0.00 82 1008.0
20260507045836 7 186 1.6 4.8 0.00 0.00 0.00 82 1008.0
20260507045336 7 86 3.2 3.2 0.00 0.00 0.00 82 1008.0
20260507044836 7 245 1.6 12.9 0.00 0.00 0.00 82 1008.0
20260507044336 7 127 3.2 3.2 0.00 0.00 0.00 82 1008.0
20260507043837 7 182 0.0 1.6 0.00 0.00 0.00 82 1008.0
20260507043337 7 224 0.0 3.2 0.00 0.00 0.00 82 1008.0
20260507042837 7 125 0.0 1.6 0.00 0.00 0.00 82 1008.0
20260507042337 7 185 0.0 3.2 0.00 0.00 0.00 82 1008.0
20260507041836 7 145 3.2 9.7 0.00 0.00 0.00 82 1008.0
20260507041336 7 185 0.0 3.2 0.00 0.00 0.00 82 1008.0
20260507040837 7 224 3.2 4.8 0.00 0.00 0.00 81 1008.0
20260507040336 7 144 1.6 1.6 0.00 0.00 0.00 81 1008.0
20260507035836 7 219 1.6 4.8 0.00 0.00 0.00 81 1008.0
20260507035338 7 135 0.0 3.2 0.00 0.00 0.00 81 1008.0
20260507034836 7 215 1.6 3.2 0.00 0.00 0.00 81 1008.0
20260507034336 7 239 0.0 1.6 0.00 0.00 0.00 81 1008.0
20260507033837 7 199 1.6 4.8 0.00 0.00 0.00 81 1008.0
20260507033341 7 181 0.0 1.6 0.00 0.00 0.00 81 1008.0
20260507032848 7 209 1.6 1.6 0.00 0.00 0.00 81 1008.0
20260507032337 7 174 0.0 1.6 0.00 0.00 0.00 81 1008.0
20260507031838 7 205 0.0 1.6 0.00 0.00 0.00 81 1008.0
20260507031337 7 208 0.0 3.2 0.00 0.00 0.00 81 1008.0
20260507030837 7 215 0.0 0.0 0.00 0.00 0.00 81 1008.0
20260507030336 7 183 0.0 1.6 0.00 0.00 0.00 81 1008.0
20260507025837 7 183 1.6 4.8 0.00 0.00 0.00 81 1008.0
20260507025337 7 180 1.6 3.2 0.00 0.00 0.00 80 1008.0
20260507024837 7 142 0.0 1.6 0.00 0.00 0.00 80 1008.0
20260507024337 7 174 0.0 1.6 0.00 0.00 0.00 80 1008.0
20260507023837 7 175 0.0 1.6 0.00 0.00 0.00 80 1008.0
20260507023337 7 138 1.6 1.6 0.00 0.00 0.00 80 1008.0
20260507022838 7 215 4.8 8.0 0.00 0.00 0.00 80 1008.0
20260507022336 7 215 1.6 3.2 0.00 0.00 0.00 80 1008.0
20260507021836 7 195 0.0 1.6 0.00 0.00 0.00 79 1008.0
20260507021336 7 199 0.0 1.6 0.00 0.00 0.00 79 1008.0
20260507020837 7 176 0.0 1.6 0.00 0.00 0.00 79 1008.0
20260507020337 7 190 1.6 3.2 0.00 0.00 0.00 79 1008.0
20260507015408 7 192 0.0 4.8 0.00 0.00 0.00 79 1008.0
20260507014837 7 208 1.6 3.2 0.00 0.00 0.00 78 1008.0
20260507014337 7 193 1.6 3.2 0.00 0.00 0.00 78 1008.0
20260507013836 7 218 0.0 4.8 0.00 0.00 0.00 78 1008.0
20260507013336 7 199 3.2 4.8 0.00 0.00 0.00 78 1008.0
20260507012837 7 179 1.6 3.2 0.00 0.00 0.00 77 1008.0
20260507012337 7 144 0.0 3.2 0.00 0.00 0.00 77 1008.0
20260507011837 7 185 1.6 4.8 0.00 0.00 0.00 77 1008.0
20260507011337 7 217 1.6 8.0 0.00 0.00 0.00 77 1008.0
20260507010837 7 212 3.2 3.2 0.00 0.00 0.00 77 1008.0
20260507010336 7 194 1.6 3.2 0.00 0.00 0.00 77 1008.0
20260507005837 7 118 3.2 3.2 0.00 0.00 0.00 76 1008.0
20260507005337 7 111 4.8 8.0 0.00 0.00 0.00 76 1008.0
20260507004836 7 209 0.0 3.2 0.00 0.00 0.00 76 1008.0
20260507004337 7 112 1.6 3.2 0.00 0.00 0.00 76 1008.0
20260507003836 8 196 0.0 1.6 0.00 0.00 0.00 76 1008.0
20260507003336 8 160 0.0 1.6 0.00 0.00 0.00 76 1009.0
20260507002843 8 207 0.0 3.2 0.00 0.00 0.00 76 1009.0
20260507002337 8 190 0.0 8.0 0.00 0.00 0.00 77 1008.0
20260507001836 8 145 0.0 1.6 0.00 0.00 0.00 77 1009.0
20260507001338 8 205 4.8 4.8 0.00 0.00 0.00 77 1009.0
20260507000837 8 167 0.0 3.2 0.00 0.00 0.00 77 1009.0
20260507000336 8 114 0.0 3.2 0.00 0.00 0.00 77 1009.0
20260506235836 8 254 4.8 4.8 0.00 0.00 0.05 77 1008.0
20260506235337 8 121 3.2 4.8 0.00 0.00 0.05 77 1009.0
20260506234837 8 153 0.0 4.8 0.00 0.00 0.05 76 1008.0
20260506234337 8 208 1.6 11.3 0.00 0.00 0.05 76 1009.0
20260506233836 8 186 0.0 1.6 0.00 0.00 0.05 76 1009.0
20260506233336 8 129 1.6 1.6 0.00 0.00 0.05 75 1009.0
20260506232837 8 133 3.2 8.0 0.00 0.00 0.05 75 1008.0
20260506232336 8 148 0.0 4.8 0.00 0.00 0.05 74 1008.0
20260506231836 8 217 1.6 3.2 0.00 0.00 0.05 74 1008.0
20260506231336 8 193 1.6 1.6 0.00 0.00 0.05 74 1008.0
20260506230837 8 187 0.0 0.0 0.00 0.00 0.05 73 1008.0
20260506230337 8 182 0.0 4.8 0.00 0.00 0.05 73 1008.0
20260506225836 8 192 1.6 3.2 0.00 0.00 0.05 73 1008.0
20260506225336 8 171 1.6 1.6 0.00 0.00 0.05 72 1008.0
20260506224837 8 184 0.0 1.6 0.00 0.00 0.05 72 1008.0
20260506224337 8 207 1.6 4.8 0.00 0.00 0.05 71 1008.0
20260506223837 8 159 0.0 3.2 0.00 0.00 0.05 71 1008.0
20260506223336 9 211 1.6 1.6 0.00 0.00 0.05 70 1008.0
20260506222837 9 190 0.0 1.6 0.00 0.00 0.05 70 1008.0